TimeEDT,TemperatureF,Dew PointF,Humidity,Sea Level PressureIn,VisibilityMPH,Wind Direction,Wind SpeedMPH,Gust SpeedMPH,PrecipitationIn,Events,Conditions,WindDirDegrees,DateUTC
12:53 AM,73.0,69.1,87,30.05,10.0,SW,5.8,-,N/A,,Clear,230,2013-07-09 04:53:00
1:53 AM,73.0,69.1,87,30.06,10.0,SW,3.5,-,N/A,,Clear,220,2013-07-09 05:53:00
2:53 AM,72.0,69.1,91,30.04,10.0,SSW,3.5,-,N/A,,Partly Cloudy,210,2013-07-09 06:53:00
3:53 AM,72.0,68.0,87,30.04,10.0,SW,5.8,-,N/A,,Clear,220,2013-07-09 07:53:00
4:53 AM,70.0,66.9,90,30.06,10.0,Calm,Calm,-,N/A,,Clear,0,2013-07-09 08:53:00
5:53 AM,70.0,66.9,90,30.07,10.0,SW,4.6,-,N/A,,Clear,220,2013-07-09 09:53:00
6:53 AM,73.0,70.0,90,30.08,10.0,WSW,4.6,-,N/A,,Clear,240,2013-07-09 10:53:00
7:53 AM,78.1,69.1,74,30.09,10.0,WSW,5.8,-,N/A,,Clear,250,2013-07-09 11:53:00
8:53 AM,80.1,69.1,69,30.09,10.0,SSW,5.8,-,N/A,,Clear,210,2013-07-09 12:53:00
9:53 AM,81.0,69.1,67,30.09,10.0,SSW,4.6,-,N/A,,Clear,210,2013-07-09 13:53:00
10:53 AM,82.9,68.0,60,30.09,10.0,SW,8.1,-,N/A,,Clear,220,2013-07-09 14:53:00
11:53 AM,82.9,66.9,58,30.09,10.0,SSW,9.2,-,N/A,,Clear,210,2013-07-09 15:53:00
12:53 PM,82.0,71.1,69,30.09,10.0,SW,10.4,-,N/A,,Clear,230,2013-07-09 16:53:00
1:53 PM,82.9,69.1,63,30.08,10.0,SSW,10.4,-,N/A,,Clear,200,2013-07-09 17:53:00
2:53 PM,84.0,70.0,63,30.07,10.0,SSW,8.1,-,N/A,,Clear,200,2013-07-09 18:53:00
3:53 PM,82.0,71.1,69,30.07,10.0,SW,9.2,-,N/A,,Clear,220,2013-07-09 19:53:00
4:53 PM,81.0,72.0,74,30.05,10.0,SSW,10.4,-,N/A,,Clear,210,2013-07-09 20:53:00
5:53 PM,79.0,71.1,77,30.04,10.0,SSW,6.9,-,N/A,,Clear,200,2013-07-09 21:53:00
6:42 PM,77.0,71.6,83,30.04,10.0,South,6.9,-,N/A,,Scattered Clouds,170,2013-07-09 22:42:00
6:53 PM,77.0,72.0,84,30.04,10.0,South,5.8,-,N/A,,Scattered Clouds,180,2013-07-09 22:53:00
7:53 PM,75.0,72.0,90,30.04,10.0,South,3.5,-,N/A,,Clear,180,2013-07-09 23:53:00
8:12 PM,75.2,71.6,89,30.04,10.0,South,4.6,-,N/A,,Scattered Clouds,170,2013-07-10 00:12:00
8:21 PM,75.2,71.6,89,30.04,10.0,South,3.5,-,N/A,,Mostly Cloudy,170,2013-07-10 00:21:00
8:53 PM,75.9,72.0,87,30.05,10.0,SW,8.1,-,N/A,,Overcast,220,2013-07-10 00:53:00
9:53 PM,75.0,72.0,90,30.06,10.0,SSW,3.5,-,N/A,,Mostly Cloudy,210,2013-07-10 01:53:00
10:53 PM,73.9,72.0,93,30.06,10.0,SSW,5.8,-,N/A,,Overcast,210,2013-07-10 02:53:00
11:53 PM,73.9,72.0,93,30.06,10.0,SSW,5.8,-,N/A,,Overcast,210,2013-07-10 03:53:00